FW1657 Weather Reports


Display with metric or nautical units.
time (UTC)temp
F
wind
direction
speed
MPH
gust
MPH
rain 1hr
in
rain 24hr
in
rain mn
in
humidity
%
barometer
mb
20260901171543 69 145 3.0 8.0 0.00 0.00 0.00 60 1021.0
20260901170129 69 137 4.0 10.0 0.00 0.00 0.00 59 1021.0
20260901164543 70 160 5.0 10.0 0.00 0.00 0.00 56 1020.8
20260901163042 70 122 4.0 10.0 0.00 0.00 0.00 56 1021.0
20260901161550 70 98 6.0 11.0 0.00 0.00 0.00 56 1020.9
20260901160043 70 136 6.0 12.0 0.00 0.00 0.00 58 1020.8
20260901154541 70 106 8.0 13.0 0.00 0.00 0.00 57 1021.0
20260901153059 70 122 10.0 14.0 0.00 0.00 0.00 56 1021.1
20260901151539 70 115 8.0 13.0 0.00 0.00 0.00 56 1021.1
20260901150037 70 82 11.0 16.0 0.00 0.00 0.00 58 1021.3
20260901144542 69 140 6.0 14.0 0.00 0.00 0.00 60 1021.4
20260901143035 69 100 8.0 12.0 0.00 0.00 0.00 61 1021.3
20260901141540 69 71 7.0 14.0 0.00 0.00 0.00 61 1021.4
20260901140034 69 157 6.0 16.0 0.00 0.00 0.00 61 1021.4
20260901134531 68 135 6.0 15.0 0.00 0.00 0.00 65 1021.5
20260901133038 68 92 7.0 19.0 0.00 0.00 0.00 64 1021.5
20260901131536 68 129 10.0 18.0 0.00 0.00 0.00 65 1021.6
20260901130028 68 123 8.0 16.0 0.00 0.00 0.00 68 1021.7
20260901124530 67 101 7.0 13.0 0.00 0.00 0.00 67 1021.7
20260901123034 66 116 10.0 17.0 0.00 0.00 0.00 66 1021.8
20260901121526 67 115 10.0 18.0 0.00 0.00 0.00 65 1021.7
20260901120024 68 91 15.0 23.0 0.00 0.00 0.00 63 1021.8
20260901114525 68 115 15.0 24.0 0.00 0.00 0.00 64 1021.8
20260901113023 68 113 13.0 19.0 0.00 0.00 0.00 66 1021.8
20260901111521 67 78 12.0 19.0 0.00 0.00 0.00 70 1021.8
20260901110121 67 102 8.0 17.0 0.00 0.00 0.00 71 1022.0
20260901104526 67 115 8.0 13.0 0.00 0.00 0.00 74 1022.0
20260901103014 65 123 10.0 15.0 0.00 0.00 0.00 75 1021.9
20260901101510 64 35 11.0 18.0 0.00 0.00 0.00 80 1022.1
20260901100009 63 91 5.0 10.0 0.00 0.00 0.00 83 1022.3
20260901094508 63 108 7.0 11.0 0.00 0.00 0.00 81 1022.2
20260901093005 62 84 8.0 12.0 0.00 0.00 0.00 81 1022.2
20260901091505 62 121 7.0 12.0 0.00 0.00 0.00 83 1022.3
20260901090006 62 126 7.0 12.0 0.00 0.00 0.00 84 1022.3
20260901084610 62 111 4.0 12.0 0.00 0.00 0.00 86 1022.2
20260901083057 61 94 6.0 12.0 0.00 0.00 0.00 86 1022.0
20260901081552 60 56 4.0 8.0 0.00 0.00 0.00 88 1021.8
20260901080051 59 50 3.0 9.0 0.00 0.00 0.00 89 1021.8
20260901074547 59 86 5.0 8.0 0.00 0.00 0.00 89 1021.6
20260901073046 59 97 4.0 7.0 0.00 0.00 0.00 90 1021.7
20260901071545 58 98 5.0 8.0 0.00 0.00 0.00 92 1021.5
20260901070043 56 92 5.0 9.0 0.00 0.00 0.00 93 1021.5
20260901064541 55 96 4.0 9.0 0.00 0.00 0.00 93 1021.6
20260901063040 55 84 3.0 7.0 0.00 0.00 0.00 93 1021.4
20260901061548 54 53 3.0 5.0 0.00 0.00 0.00 94 1021.3
20260901060042 54 50 2.0 5.0 0.00 0.00 0.00 93 1021.2
20260901054536 53 59 3.0 5.0 0.00 0.00 0.00 93 1021.3
20260901053042 53 58 3.0 5.0 0.00 0.00 0.00 93 1021.2
20260901051539 53 48 3.0 5.0 0.00 0.00 0.00 93 1021.1
20260901050035 53 50 3.0 5.0 0.00 0.00 0.00 93 1021.2
20260901044535 53 50 2.0 5.0 0.00 0.00 0.00 93 1021.2
20260901043033 53 51 2.0 5.0 0.00 0.00 0.00 93 1021.1
20260901041531 53 47 3.0 7.0 0.00 0.00 0.00 93 1021.1
20260901040034 53 40 4.0 7.0 0.00 0.00 0.00 93 1020.9
20260901034533 53 29 4.0 7.0 0.00 0.00 0.00 93 1020.8
20260901033026 53 25 4.0 7.0 0.00 0.00 0.00 93 1020.6
20260901031542 53 33 3.0 6.0 0.00 0.00 0.00 92 1020.4
20260901030024 53 46 3.0 5.0 0.00 0.00 0.00 93 1020.4
20260901024525 54 37 3.0 6.0 0.00 0.00 0.00 92 1020.3
20260901023018 54 48 3.0 5.0 0.00 0.00 0.00 92 1020.4
20260901021516 54 56 4.0 6.0 0.00 0.00 0.00 92 1020.4
20260901020015 54 40 2.0 4.0 0.00 0.00 0.00 92 1020.4
20260901014514 54 42 3.0 5.0 0.00 0.00 0.00 92 1020.4
20260901013013 54 48 3.0 5.0 0.00 0.00 0.00 92 1020.2
20260901011512 54 42 3.0 5.0 0.00 0.00 0.00 92 1020.3
20260901010022 54 42 1.0 3.0 0.00 0.00 0.00 92 1020.2
20260901004509 54 42 2.0 4.0 0.00 0.00 0.00 91 1020.2
20260901003008 54 43 3.0 5.0 0.00 0.00 0.00 91 1020.1
20260901001514 54 54 3.0 5.0 0.00 0.00 0.00 91 1020.3
20260901000012 54 67 3.0 4.0 0.00 0.01 0.00 90 1020.1
20260831234503 55 72 2.0 5.0 0.00 0.01 0.00 90 1019.9
20260831233101 55 81 2.0 6.0 0.00 0.01 0.00 90 1019.9
20260831231603 56 84 3.0 5.0 0.00 0.01 0.00 90 1019.8
20260831230137 56 82 4.0 5.0 0.00 0.02 0.00 89 1020.0
20260831224555 57 80 2.0 4.0 0.00 0.02 0.00 89 1019.9
20260831223054 57 94 4.0 7.0 0.00 0.02 0.00 89 1020.0
20260831221613 57 113 5.0 8.0 0.00 0.02 0.00 89 1019.9
20260831220048 58 98 4.0 9.0 0.00 0.06 0.02 88 1020.0
20260831214549 58 98 6.0 9.0 0.00 0.06 0.02 88 1019.8
20260831213053 58 100 6.0 11.0 0.00 0.06 0.02 88 1019.7
20260831211559 58 97 5.0 10.0 0.00 0.06 0.02 88 1019.6
20260831210043 58 85 4.0 8.0 0.00 0.06 0.02 88 1019.5
20260831204542 58 81 4.0 9.0 0.00 0.06 0.02 87 1019.4
20260831203043 58 81 3.0 8.0 0.00 0.06 0.02 86 1019.3
20260831201540 59 81 4.0 9.0 0.00 0.06 0.02 86 1019.1
20260831200038 59 74 5.0 10.0 0.00 0.06 0.02 85 1019.0
20260831194612 59 95 8.0 12.0 0.00 0.06 0.02 84 1018.9
20260831193036 60 78 7.0 11.0 0.00 0.06 0.02 84 1018.8
20260831191537 60 83 6.0 11.0 0.00 0.06 0.02 83 1018.7
20260831190034 61 85 8.0 12.0 0.00 0.06 0.02 82 1018.5
20260831184542 61 88 6.0 11.0 0.00 0.06 0.02 80 1018.3
20260831183029 62 83 9.0 15.0 0.00 0.06 0.02 78 1017.8
20260831181531 63 98 9.0 20.0 0.00 0.06 0.02 76 1017.7
20260831180027 64 74 11.0 21.0 0.00 0.06 0.02 73 1017.5
20260831174543 64 83 16.0 32.0 0.00 0.06 0.02 71 1017.4
20260831173025 65 100 14.0 21.0 0.00 0.06 0.02 71 1017.1